Regional Weather Roundup
Issued by NWS

Home | Current Version | Previous Version | Graphics & Text | Print | Product List | Glossary On
Versions: 1 2 3 4 5 6 7 8 9 10 11 12 13 14 15 16 17 18 19 20 21 22 23 24 25 26 27 28 29 30 31 32 33 34 35 36 37 38 39 40 41 42 43 44 45 46 47 48 49 50
216
ASUS43 KFSD 261810
RWRSD

WEATHER ROUNDUP FOR SOUTH DAKOTA
NATIONAL WEATHER SERVICE SIOUX FALLS SD
100 PM CDT THU MAY 26 2016

NOTE: "FAIR" INDICATES FEW OR NO CLOUDS BELOW 12,000 FEET WITH NO
SIGNIFICANT WEATHER AND/OR OBSTRUCTIONS TO VISIBILITY.


SDZ001>005-009-010-012>017-261900-
NORTHWEST AND NORTH CENTRAL SOUTH DAKOTA

CITY           SKY/WX    TMP DP  RH WIND       PRES   REMARKS
BUFFALO          N/A     66  41  40 W17       29.80F
FAITH            N/A     69  41  36 W12       29.86S
MOBRIDGE       SUNNY     71  48  43 SW9       29.81F
$$

SDZ012>016-024>037-041>051-057-063-072>074-261900-
SOUTHWEST AND SOUTH CENTRAL SOUTH DAKOTA

CITY           SKY/WX    TMP DP  RH WIND       PRES   REMARKS
RAPID CTY ARPT MOSUNNY   67  43  41 N5        29.90R
PIERRE         CLOUDY    72  52  49 S14G22    29.85S
CUSTER         MOSUNNY   58  33  39 SW6G21    29.96S
ELLSWORTH AFB  PTSUNNY   65  44  46 NE7       29.89S
PHILIP         PTSUNNY   70  50  49 CALM      29.87S
PINE RIDGE     SUNNY     70  45  40 VRB5      29.90S
WINNER         FAIR      73  55  53 S14       29.86F
$$

SDZ004>011-016>023-039-040-261900-
NORTHEAST SOUTH DAKOTA

CITY           SKY/WX    TMP DP  RH WIND       PRES   REMARKS
ABERDEEN       SUNNY     73  50  44 SW6       29.85S
WATERTOWN      SUNNY     71  49  45 NW12      29.87R
BROOKINGS      SUNNY     72  50  45 W9        29.88S
SISSETON         N/A     76  45  33 NW23G32   29.80F
$$

SDZ017-020-022-023-036>040-048>070-261900-
SOUTHEAST SOUTH DAKOTA

CITY           SKY/WX    TMP DP  RH WIND       PRES   REMARKS
SIOUX FALLS    CLOUDY    74  53  48 N6        29.86F
HURON          MOSUNNY   72  53  51 SW8       29.87F
CHAMBERLAIN    CLOUDY    73  57  57 S7        29.87F
MITCHELL       MOSUNNY   73  52  47 CALM      29.87F
YANKTON        MOSUNNY   68  54  60 SE7       29.88S
$$

ABBREVIATIONS USED IN REMARKS
   TC - TEMPERATURE IN CELSIUS
  WCI - WIND CHILL INDEX
   HX - HEAT INDEX
  VSB - VISIBILITY





USA.gov is the U.S. government's official web portal to all federal, state and local government web resources and services.